When you browse on this site, cookies collect data to enhance your experience and personalize the content and advertising you see.
Visit our Privacy Policy to learn more. By continuing to use the site, you agree to this use of cookies and data.
  • Em Portugal
  • Lista de países
  • Para 7 dias
  • Temperatura da água
  • Mapas de satélite
  • Mapa do tempo
  • Widgets de tempo
  • user-avatar
    Iniciar Sessão

    Previsão horária em Tarija

    Hoje, 23 Abril, Terça-feira

    Tempo Temperatura Precipitação Vento Pressão Humidade
    00:00 +17°C° 0.2 mm 2 m/s 598 mmHg 94%
    01:00 +17°C° 0.2 mm 2 m/s 598 mmHg 94%
    02:00 +17°C° 0.2 mm 2 m/s 598 mmHg 95%
    03:00 +17°C° 0.2 mm 2 m/s 599 mmHg 95%
    04:00 +17°C° 0.2 mm 2 m/s 599 mmHg 95%
    05:00 +17°C° 0.2 mm 2 m/s 599 mmHg 95%
    06:00 +17°C° 0.2 mm 2 m/s 599 mmHg 94%
    07:00 +17°C° 0.2 mm 2 m/s 599 mmHg 93%
    08:00 +17°C° 0.2 mm 2 m/s 599 mmHg 93%
    09:00 +18°C° 0.1 mm 2 m/s 600 mmHg 88%
    10:00 +18°C° 0.1 mm 3 m/s 600 mmHg 83%
    11:00 +19°C° 0.1 mm 3 m/s 600 mmHg 79%
    12:00 +19°C° 0.1 mm 3 m/s 600 mmHg 78%
    13:00 +20°C° 0.1 mm 3 m/s 599 mmHg 77%
    14:00 +20°C° 0.1 mm 3 m/s 599 mmHg 76%
    15:00 +19°C° 0.1 mm 3 m/s 598 mmHg 80%
    16:00 +19°C° 0.1 mm 3 m/s 598 mmHg 84%
    17:00 +18°C° 0.1 mm 3 m/s 597 mmHg 88%
    18:00 +17°C° 0.1 mm 3 m/s 597 mmHg 90%
    19:00 +17°C° 0.1 mm 2 m/s 598 mmHg 92%
    20:00 +17°C° 0.1 mm 2 m/s 598 mmHg 93%
    21:00 +17°C° 0.1 mm 2 m/s 598 mmHg 93%
    22:00 +16°C° 0.1 mm 2 m/s 599 mmHg 93%
    23:00 +16°C° 0.1 mm 2 m/s 599 mmHg 93%

    Amanhã, 24 Abril, Quarta-feira

    Tempo Temperatura Precipitação Vento Pressão Humidade
    00:00 +16°C° 0.2 mm 2 m/s 599 mmHg 93%
    01:00 +16°C° 0.2 mm 1 m/s 599 mmHg 93%
    02:00 +16°C° 0.2 mm 1 m/s 599 mmHg 94%
    03:00 +16°C° 0.8 mm 1 m/s 599 mmHg 94%
    04:00 +16°C° 0.8 mm 1 m/s 598 mmHg 94%
    05:00 +16°C° 0.8 mm 1 m/s 598 mmHg 94%
    06:00 +16°C° 1.1 mm 1 m/s 599 mmHg 93%
    07:00 +16°C° 1.1 mm 1 m/s 599 mmHg 92%
    08:00 +16°C° 1.1 mm 1 m/s 599 mmHg 91%
    09:00 +17°C° 0.4 mm 2 m/s 600 mmHg 88%
    10:00 +17°C° 0.4 mm 2 m/s 600 mmHg 85%
    11:00 +18°C° 0.4 mm 3 m/s 600 mmHg 83%
    12:00 +19°C° 0.1 mm 3 m/s 600 mmHg 79%
    13:00 +20°C° 0.1 mm 3 m/s 599 mmHg 76%
    14:00 +21°C° 0.1 mm 4 m/s 598 mmHg 72%
    15:00 +20°C° 0.2 mm 3 m/s 598 mmHg 75%
    16:00 +20°C° 0.2 mm 3 m/s 597 mmHg 77%
    17:00 +19°C° 0.2 mm 3 m/s 597 mmHg 80%
    18:00 +19°C° 0.3 mm 3 m/s 597 mmHg 84%
    19:00 +18°C° 0.3 mm 2 m/s 598 mmHg 88%
    20:00 +17°C° 0.3 mm 2 m/s 598 mmHg 92%
    21:00 +17°C° 0.2 mm 2 m/s 599 mmHg 92%
    22:00 +17°C° 0.2 mm 2 m/s 599 mmHg 92%
    23:00 +18°C° 0.2 mm 1 m/s 600 mmHg 93%

    Depois de amanhã, 25 Abril, Quinta-feira

    Tempo Temperatura Precipitação Vento Pressão Humidade
    00:00 +18°C° 0.1 mm 1 m/s 599 mmHg 93%
    01:00 +18°C° 0.1 mm 1 m/s 599 mmHg 93%
    02:00 +18°C° 0.1 mm 1 m/s 599 mmHg 93%
    03:00 +17°C° 0.1 mm 2 m/s 599 mmHg 93%
    04:00 +17°C° 0.1 mm 2 m/s 599 mmHg 93%
    05:00 +17°C° 0.1 mm 2 m/s 599 mmHg 93%
    06:00 +17°C° 0 mm 2 m/s 599 mmHg 90%
    07:00 +18°C° 0 mm 2 m/s 600 mmHg 88%
    08:00 +18°C° 0 mm 2 m/s 600 mmHg 85%
    09:00 +19°C° 0 mm 2 m/s 601 mmHg 80%
    10:00 +20°C° 0 mm 3 m/s 601 mmHg 75%
    11:00 +21°C° 0 mm 3 m/s 601 mmHg 69%
    12:00 +21°C° 0.1 mm 3 m/s 601 mmHg 70%
    13:00 +22°C° 0.1 mm 3 m/s 600 mmHg 70%
    14:00 +22°C° 0.1 mm 3 m/s 599 mmHg 71%
    15:00 +21°C° 0.4 mm 3 m/s 598 mmHg 77%
    16:00 +20°C° 0.4 mm 3 m/s 598 mmHg 83%
    17:00 +19°C° 0.4 mm 3 m/s 597 mmHg 89%
    18:00 +18°C° 0.2 mm 3 m/s 598 mmHg 90%
    19:00 +18°C° 0.2 mm 2 m/s 599 mmHg 91%
    20:00 +18°C° 0.2 mm 2 m/s 599 mmHg 92%
    21:00 +17°C° 0.4 mm 2 m/s 599 mmHg 92%
    22:00 +17°C° 0.4 mm 2 m/s 600 mmHg 93%
    23:00 +17°C° 0.4 mm 2 m/s 600 mmHg 94%

    26 Abril, Sexta-feira

    Tempo Temperatura Precipitação Vento Pressão Humidade
    00:00 +17°C° 0.2 mm 2 m/s 600 mmHg 94%
    01:00 +17°C° 0.2 mm 2 m/s 600 mmHg 94%
    02:00 +17°C° 0.2 mm 2 m/s 599 mmHg 94%
    03:00 +17°C° 0.1 mm 2 m/s 599 mmHg 94%
    04:00 +17°C° 0.1 mm 2 m/s 599 mmHg 94%
    05:00 +16°C° 0.1 mm 2 m/s 599 mmHg 93%
    06:00 +17°C° 0.1 mm 2 m/s 599 mmHg 92%
    07:00 +17°C° 0.1 mm 2 m/s 600 mmHg 92%
    08:00 +17°C° 0.1 mm 2 m/s 600 mmHg 91%
    09:00 +18°C° 0.1 mm 2 m/s 600 mmHg 87%
    10:00 +18°C° 0.1 mm 3 m/s 600 mmHg 84%
    11:00 +19°C° 0.1 mm 3 m/s 600 mmHg 81%
    12:00 +19°C° 0.2 mm 3 m/s 600 mmHg 80%
    13:00 +19°C° 0.2 mm 3 m/s 599 mmHg 80%
    14:00 +19°C° 0.2 mm 3 m/s 598 mmHg 80%
    15:00 +19°C° 0.2 mm 3 m/s 597 mmHg 82%
    16:00 +18°C° 0.2 mm 3 m/s 597 mmHg 83%
    17:00 +18°C° 0.2 mm 3 m/s 596 mmHg 85%
    18:00 +18°C° 0.2 mm 3 m/s 597 mmHg 87%
    19:00 +17°C° 0.2 mm 2 m/s 597 mmHg 90%
    20:00 +17°C° 0.2 mm 2 m/s 598 mmHg 92%
    21:00 +16°C° 0.2 mm 2 m/s 598 mmHg 92%
    22:00 +16°C° 0.2 mm 2 m/s 598 mmHg 93%
    23:00 +16°C° 0.2 mm 1 m/s 599 mmHg 93%

    27 Abril, Sábado

    Tempo Temperatura Precipitação Vento Pressão Humidade
    00:00 +16°C° 0.2 mm 1 m/s 598 mmHg 93%
    01:00 +16°C° 0.2 mm 1 m/s 598 mmHg 92%
    02:00 +16°C° 0.2 mm 1 m/s 598 mmHg 92%
    03:00 +16°C° 0.1 mm 1 m/s 598 mmHg 92%
    04:00 +16°C° 0.1 mm 1 m/s 598 mmHg 92%
    05:00 +16°C° 0.1 mm 1 m/s 598 mmHg 92%
    06:00 +16°C° 0.1 mm 1 m/s 599 mmHg 91%
    07:00 +16°C° 0.1 mm 1 m/s 599 mmHg 91%
    08:00 +16°C° 0.1 mm 2 m/s 599 mmHg 90%
    09:00 +17°C° 0.1 mm 2 m/s 600 mmHg 84%
    10:00 +18°C° 0.1 mm 2 m/s 600 mmHg 78%
    11:00 +19°C° 0.1 mm 2 m/s 600 mmHg 72%
    12:00 +19°C° 0.1 mm 3 m/s 599 mmHg 70%
    13:00 +20°C° 0.1 mm 3 m/s 599 mmHg 67%
    14:00 +20°C° 0.1 mm 3 m/s 598 mmHg 65%
    15:00 +19°C° 0.1 mm 3 m/s 597 mmHg 72%
    16:00 +18°C° 0.1 mm 3 m/s 597 mmHg 79%
    17:00 +18°C° 0.1 mm 3 m/s 596 mmHg 86%
    18:00 +17°C° 0.1 mm 3 m/s 597 mmHg 87%
    19:00 +16°C° 0.1 mm 2 m/s 597 mmHg 89%
    20:00 +16°C° 0.1 mm 2 m/s 598 mmHg 90%
    21:00 +16°C° 0 mm 2 m/s 598 mmHg 90%
    22:00 +15°C° 0 mm 1 m/s 598 mmHg 91%
    23:00 +15°C° 0 mm 1 m/s 599 mmHg 91%

    28 Abril, Domingo

    Tempo Temperatura Precipitação Vento Pressão Humidade
    00:00 +15°C° 0 mm 1 m/s 598 mmHg 91%
    01:00 +14°C° 0 mm 1 m/s 598 mmHg 90%
    02:00 +14°C° 0 mm 1 m/s 598 mmHg 90%
    03:00 +13°C° 0 mm 1 m/s 597 mmHg 89%
    04:00 +13°C° 0 mm 1 m/s 597 mmHg 87%
    05:00 +12°C° 0 mm 0 m/s 597 mmHg 86%
    06:00 +14°C° 0 mm 1 m/s 598 mmHg 79%
    07:00 +16°C° 0 mm 1 m/s 599 mmHg 71%
    08:00 +18°C° 0 mm 1 m/s 601 mmHg 64%
    09:00 +20°C° 0 mm 1 m/s 601 mmHg 56%
    10:00 +21°C° 0 mm 1 m/s 601 mmHg 49%
    11:00 +23°C° 0 mm 1 m/s 602 mmHg 42%
    12:00 +24°C° 0 mm 2 m/s 601 mmHg 42%
    13:00 +24°C° 0 mm 3 m/s 600 mmHg 42%
    14:00 +25°C° 0 mm 3 m/s 600 mmHg 43%
    15:00 +24°C° 0 mm 3 m/s 599 mmHg 50%
    16:00 +22°C° 0 mm 3 m/s 599 mmHg 58%
    17:00 +21°C° 0 mm 3 m/s 598 mmHg 65%
    18:00 +20°C° 0 mm 3 m/s 598 mmHg 73%
    19:00 +18°C° 0 mm 2 m/s 598 mmHg 80%
    20:00 +17°C° 0 mm 2 m/s 598 mmHg 88%
    21:00 +17°C° 0 mm 2 m/s 598 mmHg 89%
    22:00 +17°C° 0 mm 2 m/s 598 mmHg 90%
    23:00 +16°C° 0 mm 2 m/s 598 mmHg 91%
    Mostrar mais